SCP
0 -1 -1 -0 -0 -0 -1 -1 -1 -1 -1 -1 -0 -0 -0 -0 0 -0 -0 -0 -0 -0 -0 0 0 0 0 0 0 0 0 0 0 0 0 0 0 0 0 0 0 0 0
0 -1 -1 -0 -0 -0 -0 -0 -1 -1 -1 -1 -1 -0 -0 -0 0 0 -0 0 0 0 0 0 0 0 0 0 0 0 0 0 0 0 0 0 0 0 0 0 0 0 0
-0 -0 -0 -1 -1 -0 -0 -0 -1 -1 -1 -1 -0 -0 -0 -0 -0 0 0 0 0 0 0 0 0 0 0 0 0 0 0 0 0 0 0 0 0 0 0 0 0 0 0
-0 -0 -0 -0 -0 -1 -0 -0 -1 -1 -1 -0 -0 -0 -0 -0 -0 -0 0 0 0 0 0 0 0 0 0 0 0 0 0 0 0 0 0 0 0 0 0 0 0 0 0
0 0 0 -0 -0 -0 -0 -0 -0 -0 -0 -0 -0 -0 -0 -0 0 0 0 0 0 0 0 0 0 0 0 0 0 0 0 0 0 0 0 0 0 0 0 0 0 0 0
0 0 0 0 0 0 -0 -0 -0 -0 -0 -0 -0 -0 -0 0 0 0 0 0 0 0 0 0 0 0 0 0 0 0 -0 0 0 0 0 0 0 0 0 0 0 0 0
0 0 1 0 0 0 0 0 0 0 -0 -0 -0 -0 0 0 0 0 0 0 0 0 0 0 0 0 0 0 0 0 -0 -0 0 0 0 0 0 0 0 0 0 0 0
1 1 1 0 1 0 0 0 0 0 0 0 0 0 0 0 0 0 0 0 0 0 0 0 0 0 0 0 0 0 0 0 0 0 0 0 0 0 0 0 0 0 0
1 1 1 1 0 0 1 0 0 0 0 0 0 0 0 0 0 0 0 0 0 0 0 0 0 0 0 0 0 0 0 0 0 0 0 0 0 0 0 0 0 0 0
1 1 1 0 0 1 1 1 1 1 1 0 0 0 0 0 0 0 0 0 0 0 0 0 0 0 0 0 0 0 0 -0 0 0 0 0 0 0 0 0 0 0 0
1 1 1 0 0 0 1 1 1 0 0 1 1 0 0 0 0 0 0 0 0 0 0 0 0 0 0 0 0 -0 0 0 0 0 0 0 0 0 0 0 0 0 0
1 1 1 0 1 1 1 1 1 1 1 1 1 1 0 0 0 0 0 0 0 0 0 0 0 0 0 0 0 0 0 0 0 0 0 0 0 0 0 0 0 0 0
1 1 1 0 1 1 1 1 1 1 1 1 0 0 0 0 0 0 0 0 0 0 0 0 0 0 0 0 0 0 0 0 0 0 0 0 0 0 0 0 0 0 0
1 1 1 1 1 1 1 1 1 1 0 0 0 0 0 0 0 0 0 0 0 0 0 0 0 0 0 0 0 0 0 0 0 0 0 0 0 0 0 0 0 0 0
0 0 1 1 1 1 1 1 1 1 1 0 0 0 0 0 0 0 0 0 0 0 0 0 0 0 0 0 0 0 0 0 0 0 0 0 0 0 0 0 0 0 0
0 0 1 1 1 1 1 1 1 1 0 0 0 0 0 0 0 0 0 0 0 0 0 0 0 0 0 0 0 0 0 0 0 0 0 0 0 0 0 0 0 0 0
0 0 0 1 1 1 1 1 1 1 1 0 0 0 0 0 0 0 0 0 0 0 0 0 0 0 0 0 0 0 0 0 0 0 0 0 0 0 0 0 0 0 0
0 0 0 0 0 0 1 1 1 1 1 1 0 0 0 0 0 0 0 0 0 0 0 0 0 0 0 0 0 0 0 0 0 0 0 0 0 0 0 0 0 0 0
0 0 0 0 0 0 0 1 1 0 0 0 0 0 0 0 0 0 0 0 0 0 0 0 0 0 0 0 0 0 0 0 0 0 0 0 0 0 0 0 0 0 0
0 1 1 1 0 0 0 0 0 0 0 0 0 0 0 0 0 0 0 0 0 0 0 0 0 0 0 0 0 0 0 0 0 0 0 0 0 0 0 0 0 0 0
0 0 1 1 1 1 0 0 0 0 0 0 0 0 0 0 0 0 0 0 0 0 0 0 0 0 0 0 0 0 0 0 0 0 0 0 0 0 0 0 0 0 0
0 0 0 0 1 1 1 1 1 1 0 0 0 0 0 0 0 0 0 0 0 0 0 0 0 0 0 0 0 0 0 0 0 0 0 0 0 0 0 0 0 0 0
0 0 0 0 0 1 1 1 0 1 0 0 1 1 0 0 0 0 0 0 0 0 0 0 0 0 0 0 0 0 0 0 0 0 0 0 0 0 0 0 0 0 0
0 0 0 0 0 0 0 0 0 0 0 0 0 0 0 0 0 0 0 0 0 0 0 0 0 0 0 0 0 0 0 0 0 0 0 0 0 0 0 0 0 0 0
0 0 0 0 0 0 0 0 0 0 0 0 0 0 0 0 0 0 0 0 0 0 0 0 0 0 0 0 0 0 0 0 0 0 0 0 0 0 0 0 0 0 0
0 0 0 0 0 0 0 0 0 0 0 0 0 0 0 0 0 0 0 0 0 0 0 0 0 0 0 0 0 0 0 0 0 0 0 0 0 0 0 0 0 0 0
Wind_Speed_500mb
33 42 41 36 31 30 35 40 38 37 36 36 35 31 29 26 25 23 21 22 23 22 21 19 14 13 13 13 13 16 18 18 16 19 20 18 17 18 16 15 16 19 23
25 47 44 38 33 30 35 40 41 38 36 36 34 31 28 26 25 21 19 19 20 19 17 16 13 13 16 15 13 14 15 16 18 18 20 22 19 17 21 20 23 25 24
27 46 44 39 34 32 36 41 44 39 36 34 32 31 28 26 25 20 18 18 20 18 14 14 13 13 14 13 12 12 16 16 16 16 21 25 23 22 25 27 26 22 21
32 41 42 39 36 33 36 41 44 41 38 34 32 32 30 27 24 20 18 17 19 19 13 13 13 12 10 10 11 12 10 11 12 18 20 23 24 24 27 28 25 23 22
38 39 39 39 36 33 34 38 41 41 40 37 35 33 30 27 23 21 19 17 17 19 15 14 12 9 6 6 9 9 6 10 10 15 18 23 26 24 26 24 22 24 25
32 33 35 38 38 35 32 35 38 39 41 40 38 35 32 27 24 21 20 18 17 17 14 16 11 7 5 8 9 8 9 10 8 12 16 23 24 25 27 27 28 28 27
23 29 30 35 38 39 36 34 37 40 41 41 39 37 33 29 25 22 21 19 17 16 13 15 12 5 7 10 11 11 11 9 6 12 16 23 26 27 28 29 27 28 25
25 29 30 32 34 36 38 37 37 40 42 43 41 37 35 30 24 21 20 19 18 16 14 15 12 6 8 10 10 12 11 6 6 11 18 25 27 29 28 29 29 27 25
29 32 35 36 36 38 39 40 39 40 43 43 42 39 35 30 24 21 19 19 18 16 15 14 13 9 6 9 8 8 8 4 4 11 20 25 27 28 29 30 30 27 26
30 33 35 38 39 40 42 43 42 40 42 43 42 39 36 31 26 22 20 19 20 17 15 16 15 12 6 6 7 4 5 4 3 10 19 25 28 29 30 30 28 27 26
27 34 36 36 39 41 43 44 45 44 42 43 43 41 39 34 30 26 22 20 20 19 17 18 17 14 9 4 6 6 6 3 7 10 18 23 26 29 30 29 29 30 23
29 30 33 37 39 41 43 44 47 48 47 46 47 46 43 37 32 28 25 23 22 22 20 19 19 17 15 7 4 6 10 8 9 10 18 19 24 29 30 30 32 31 23
24 28 30 34 37 39 42 46 49 51 51 51 48 47 44 41 37 33 28 25 22 22 22 22 21 18 16 11 10 10 11 13 12 12 8 17 22 28 28 30 37 36 22
16 16 25 34 41 43 40 41 48 52 54 55 52 49 48 46 41 35 31 28 24 22 23 25 24 21 16 13 11 12 17 17 14 11 10 14 18 25 27 30 36 36 22
18 18 20 28 36 40 39 41 44 48 52 53 53 51 50 47 43 39 36 32 29 25 25 28 30 24 19 17 15 17 19 18 17 13 13 11 16 21 23 27 34 30 21
23 26 25 29 33 30 32 35 38 39 45 47 49 51 52 50 46 43 41 36 33 28 29 31 35 29 23 22 22 17 16 19 18 16 11 9 13 17 19 25 32 29 21
25 24 23 19 22 24 23 25 32 29 33 37 41 42 47 50 49 47 45 41 34 32 32 35 36 36 29 26 26 22 14 22 21 14 9 7 10 12 16 21 27 29 28
25 25 28 20 16 18 19 18 19 20 23 23 28 35 41 43 49 50 50 47 38 35 34 38 40 37 31 30 28 24 25 22 20 14 9 6 8 7 12 15 22 26 28
28 27 30 27 20 12 18 18 19 19 18 20 24 29 39 45 41 47 53 51 46 43 38 35 32 32 31 34 31 25 25 23 20 16 8 6 7 5 9 12 16 22 24
40 34 34 29 23 18 21 17 19 20 23 25 29 31 32 40 42 43 44 52 51 48 47 42 38 32 36 34 34 33 29 28 28 20 11 8 9 7 10 11 13 19 21
47 42 38 35 27 26 25 26 25 20 21 20 25 27 28 32 38 49 52 41 45 53 52 47 42 37 38 41 38 35 35 37 35 28 22 17 15 12 15 14 13 17 20
49 48 41 40 34 33 31 26 29 32 34 35 31 28 32 34 39 41 48 44 39 44 53 51 47 41 45 45 46 42 28 38 40 36 35 29 23 21 20 19 15 14 17
33 36 38 35 36 36 34 31 32 36 44 44 40 41 41 39 36 35 41 47 48 46 51 56 52 48 51 54 55 37 16 21 31 39 42 38 32 30 25 25 21 14 15
20 22 23 26 26 23 27 34 41 43 44 46 51 56 56 51 45 38 38 47 54 60 55 58 60 55 56 60 60 55 49 31 18 16 35 44 42 37 32 29 26 15 15
20 22 25 27 29 30 29 29 32 35 39 39 45 55 63 62 52 41 42 44 51 59 62 60 66 66 62 67 69 64 60 53 41 35 25 34 46 42 37 33 28 17 17
13 15 17 19 20 20 21 26 31 33 34 39 43 51 54 58 58 49 54 49 50 55 58 70 58 61 62 64 70 69 63 59 56 45 39 32 38 41 41 37 32 23 20
Wind_Direction_500mb
169 176 174 170 169 176 178 175 173 166 165 166 163 158 154 147 145 137 128 123 121 122 125 121 115 106 94 86 80 85 80 74 73 71 48 45 43 56 39 16 1 352 349
180 177 175 175 173 179 180 179 176 173 174 170 168 166 164 160 153 146 136 129 122 125 125 116 110 100 92 90 84 84 76 63 96 72 49 37 36 31 18 5 357 350 347
182 176 177 179 178 181 181 183 182 183 183 182 178 174 172 166 161 152 148 136 130 130 124 119 112 101 98 92 81 80 73 75 94 61 39 24 21 17 6 357 353 352 353
182 178 181 183 184 183 184 185 187 189 189 187 183 179 176 173 166 161 156 147 140 133 135 130 121 115 110 101 90 82 73 82 88 46 29 22 16 14 4 357 358 3 359
176 181 184 188 190 190 190 189 189 189 190 189 187 183 181 178 175 168 162 157 145 138 148 139 132 131 116 94 93 95 74 94 72 37 26 20 16 13 7 7 2 5 3
172 183 188 191 195 198 197 196 194 192 190 189 189 187 185 185 183 174 166 161 155 146 156 139 141 148 108 76 79 95 92 116 75 34 24 17 13 10 12 11 7 6 9
176 192 196 197 199 202 204 203 201 198 195 192 192 191 190 192 189 180 170 165 162 153 160 146 150 164 98 98 94 102 92 111 81 27 20 14 10 11 18 10 7 13 18
188 194 199 203 206 210 211 211 209 205 202 199 198 197 197 199 195 188 176 168 166 163 167 157 153 162 110 105 98 103 87 90 55 21 12 10 10 13 18 10 12 15 18
203 205 202 205 208 213 218 218 215 212 209 207 204 203 204 205 202 195 183 173 172 173 174 165 155 162 115 91 88 83 71 75 55 13 6 7 12 17 18 9 14 13 14
217 217 213 210 213 215 219 221 220 216 214 212 211 208 209 209 207 203 194 182 177 183 181 176 164 170 154 84 46 26 26 41 9 3 7 8 14 17 16 10 13 8 17
217 220 221 221 219 221 224 224 223 220 218 215 214 212 213 212 212 210 202 193 183 188 193 186 177 179 180 129 6 358 327 334 343 344 360 7 17 16 15 14 11 12 32
220 222 221 223 226 225 228 229 229 225 221 219 217 216 216 216 217 217 212 204 196 192 199 201 193 185 184 185 302 355 342 299 323 324 347 4 18 15 15 17 16 20 42
234 237 236 232 233 237 230 230 229 228 227 225 221 221 220 220 221 223 222 218 213 205 202 216 207 205 203 214 241 255 288 310 300 276 350 7 14 17 14 21 18 28 45
228 242 243 247 243 243 243 238 235 231 230 229 226 224 225 226 226 229 232 230 225 220 211 214 218 219 215 224 250 269 272 275 281 266 312 359 14 18 14 24 22 27 46
244 234 248 249 250 249 247 249 245 238 237 237 232 229 229 231 233 235 237 237 233 226 220 211 221 220 232 244 263 276 282 273 256 249 308 348 19 18 18 21 27 37 39
243 249 231 233 231 235 246 251 255 247 241 241 238 239 238 237 236 239 243 243 242 238 229 221 214 226 236 251 266 285 288 267 246 254 297 333 20 20 19 21 27 31 41
247 231 211 222 220 227 238 243 255 254 247 243 243 245 250 249 247 244 245 248 249 244 232 227 221 224 237 249 259 254 240 259 238 250 279 308 17 21 19 20 21 21 20
238 232 190 207 236 237 241 244 257 264 259 254 254 248 253 255 252 251 250 250 249 244 240 230 226 232 236 247 251 260 244 231 228 243 263 295 359 7 16 13 13 13 18
233 219 230 237 237 249 230 244 247 257 258 265 265 265 267 260 254 253 252 251 249 244 239 234 229 234 248 251 252 250 239 224 227 235 255 286 317 325 350 351 357 8 14
232 230 233 244 233 238 230 233 236 249 263 267 277 276 283 273 277 268 255 250 245 245 237 237 237 252 249 247 234 225 221 221 225 233 241 253 272 278 307 322 335 360 5
226 227 237 233 239 237 235 232 244 264 270 285 297 304 298 283 285 279 254 251 248 242 235 238 242 248 248 234 220 218 219 223 228 231 236 239 245 263 283 293 311 345 349
235 238 241 239 234 242 240 260 270 279 277 268 277 287 297 292 286 283 273 252 255 246 233 236 239 238 235 229 212 219 216 228 231 243 240 236 236 249 266 271 284 317 331
235 237 243 236 239 248 250 248 261 269 277 277 283 288 292 300 296 291 287 271 256 247 239 234 238 234 234 222 225 214 202 218 224 238 239 237 234 243 253 256 262 289 309
194 196 198 212 229 234 240 250 254 260 275 284 281 281 283 282 284 289 292 281 266 248 244 241 239 237 235 231 227 233 235 246 214 221 239 236 235 239 243 245 248 261 286
183 189 194 201 210 218 233 241 249 255 264 272 277 275 277 276 278 277 283 285 271 265 250 240 240 238 237 237 233 233 234 242 243 239 248 239 233 232 231 236 240 245 268
167 178 191 200 208 221 238 254 261 265 271 276 282 283 285 273 273 266 274 287 273 263 262 248 241 236 241 242 237 238 243 244 246 242 243 241 233 227 227 229 233 236 251
Wind_Speed_850mb
33 42 41 36 31 30 35 40 38 37 36 36 35 31 29 26 25 23 21 22 23 22 21 19 14 13 13 13 13 16 18 18 16 19 20 18 17 18 16 15 16 19 23
25 47 44 38 33 30 35 40 41 38 36 36 34 31 28 26 25 21 19 19 20 19 17 16 13 13 16 15 13 14 15 16 18 18 20 22 19 17 21 20 23 25 24
27 46 44 39 34 32 36 41 44 39 36 34 32 31 28 26 25 20 18 18 20 18 14 14 13 13 14 13 12 12 16 16 16 16 21 25 23 22 25 27 26 22 21
32 41 42 39 36 33 36 41 44 41 38 34 32 32 30 27 24 20 18 17 19 19 13 13 13 12 10 10 11 12 10 11 12 18 20 23 24 24 27 28 25 23 22
38 39 39 39 36 33 34 38 41 41 40 37 35 33 30 27 23 21 19 17 17 19 15 14 12 9 6 6 9 9 6 10 10 15 18 23 26 24 26 24 22 24 25
32 33 35 38 38 35 32 35 38 39 41 40 38 35 32 27 24 21 20 18 17 17 14 16 11 7 5 8 9 8 9 10 8 12 16 23 24 25 27 27 28 28 27
23 29 30 35 38 39 36 34 37 40 41 41 39 37 33 29 25 22 21 19 17 16 13 15 12 5 7 10 11 11 11 9 6 12 16 23 26 27 28 29 27 28 25
25 29 30 32 34 36 38 37 37 40 42 43 41 37 35 30 24 21 20 19 18 16 14 15 12 6 8 10 10 12 11 6 6 11 18 25 27 29 28 29 29 27 25
29 32 35 36 36 38 39 40 39 40 43 43 42 39 35 30 24 21 19 19 18 16 15 14 13 9 6 9 8 8 8 4 4 11 20 25 27 28 29 30 30 27 26
30 33 35 38 39 40 42 43 42 40 42 43 42 39 36 31 26 22 20 19 20 17 15 16 15 12 6 6 7 4 5 4 3 10 19 25 28 29 30 30 28 27 26
27 34 36 36 39 41 43 44 45 44 42 43 43 41 39 34 30 26 22 20 20 19 17 18 17 14 9 4 6 6 6 3 7 10 18 23 26 29 30 29 29 30 23
29 30 33 37 39 41 43 44 47 48 47 46 47 46 43 37 32 28 25 23 22 22 20 19 19 17 15 7 4 6 10 8 9 10 18 19 24 29 30 30 32 31 23
24 28 30 34 37 39 42 46 49 51 51 51 48 47 44 41 37 33 28 25 22 22 22 22 21 18 16 11 10 10 11 13 12 12 8 17 22 28 28 30 37 36 22
16 16 25 34 41 43 40 41 48 52 54 55 52 49 48 46 41 35 31 28 24 22 23 25 24 21 16 13 11 12 17 17 14 11 10 14 18 25 27 30 36 36 22
18 18 20 28 36 40 39 41 44 48 52 53 53 51 50 47 43 39 36 32 29 25 25 28 30 24 19 17 15 17 19 18 17 13 13 11 16 21 23 27 34 30 21
23 26 25 29 33 30 32 35 38 39 45 47 49 51 52 50 46 43 41 36 33 28 29 31 35 29 23 22 22 17 16 19 18 16 11 9 13 17 19 25 32 29 21
25 24 23 19 22 24 23 25 32 29 33 37 41 42 47 50 49 47 45 41 34 32 32 35 36 36 29 26 26 22 14 22 21 14 9 7 10 12 16 21 27 29 28
25 25 28 20 16 18 19 18 19 20 23 23 28 35 41 43 49 50 50 47 38 35 34 38 40 37 31 30 28 24 25 22 20 14 9 6 8 7 12 15 22 26 28
28 27 30 27 20 12 18 18 19 19 18 20 24 29 39 45 41 47 53 51 46 43 38 35 32 32 31 34 31 25 25 23 20 16 8 6 7 5 9 12 16 22 24
40 34 34 29 23 18 21 17 19 20 23 25 29 31 32 40 42 43 44 52 51 48 47 42 38 32 36 34 34 33 29 28 28 20 11 8 9 7 10 11 13 19 21
47 42 38 35 27 26 25 26 25 20 21 20 25 27 28 32 38 49 52 41 45 53 52 47 42 37 38 41 38 35 35 37 35 28 22 17 15 12 15 14 13 17 20
49 48 41 40 34 33 31 26 29 32 34 35 31 28 32 34 39 41 48 44 39 44 53 51 47 41 45 45 46 42 28 38 40 36 35 29 23 21 20 19 15 14 17
33 36 38 35 36 36 34 31 32 36 44 44 40 41 41 39 36 35 41 47 48 46 51 56 52 48 51 54 55 37 16 21 31 39 42 38 32 30 25 25 21 14 15
20 22 23 26 26 23 27 34 41 43 44 46 51 56 56 51 45 38 38 47 54 60 55 58 60 55 56 60 60 55 49 31 18 16 35 44 42 37 32 29 26 15 15
20 22 25 27 29 30 29 29 32 35 39 39 45 55 63 62 52 41 42 44 51 59 62 60 66 66 62 67 69 64 60 53 41 35 25 34 46 42 37 33 28 17 17
13 15 17 19 20 20 21 26 31 33 34 39 43 51 54 58 58 49 54 49 50 55 58 70 58 61 62 64 70 69 63 59 56 45 39 32 38 41 41 37 32 23 20
Wind_Direction_850mb
169 176 174 170 169 176 178 175 173 166 165 166 163 158 154 147 145 137 128 123 121 122 125 121 115 106 94 86 80 85 80 74 73 71 48 45 43 56 39 16 1 352 349
180 177 175 175 173 179 180 179 176 173 174 170 168 166 164 160 153 146 136 129 122 125 125 116 110 100 92 90 84 84 76 63 96 72 49 37 36 31 18 5 357 350 347
182 176 177 179 178 181 181 183 182 183 183 182 178 174 172 166 161 152 148 136 130 130 124 119 112 101 98 92 81 80 73 75 94 61 39 24 21 17 6 357 353 352 353
182 178 181 183 184 183 184 185 187 189 189 187 183 179 176 173 166 161 156 147 140 133 135 130 121 115 110 101 90 82 73 82 88 46 29 22 16 14 4 357 358 3 359
176 181 184 188 190 190 190 189 189 189 190 189 187 183 181 178 175 168 162 157 145 138 148 139 132 131 116 94 93 95 74 94 72 37 26 20 16 13 7 7 2 5 3
172 183 188 191 195 198 197 196 194 192 190 189 189 187 185 185 183 174 166 161 155 146 156 139 141 148 108 76 79 95 92 116 75 34 24 17 13 10 12 11 7 6 9
176 192 196 197 199 202 204 203 201 198 195 192 192 191 190 192 189 180 170 165 162 153 160 146 150 164 98 98 94 102 92 111 81 27 20 14 10 11 18 10 7 13 18
188 194 199 203 206 210 211 211 209 205 202 199 198 197 197 199 195 188 176 168 166 163 167 157 153 162 110 105 98 103 87 90 55 21 12 10 10 13 18 10 12 15 18
203 205 202 205 208 213 218 218 215 212 209 207 204 203 204 205 202 195 183 173 172 173 174 165 155 162 115 91 88 83 71 75 55 13 6 7 12 17 18 9 14 13 14
217 217 213 210 213 215 219 221 220 216 214 212 211 208 209 209 207 203 194 182 177 183 181 176 164 170 154 84 46 26 26 41 9 3 7 8 14 17 16 10 13 8 17
217 220 221 221 219 221 224 224 223 220 218 215 214 212 213 212 212 210 202 193 183 188 193 186 177 179 180 129 6 358 327 334 343 344 360 7 17 16 15 14 11 12 32
220 222 221 223 226 225 228 229 229 225 221 219 217 216 216 216 217 217 212 204 196 192 199 201 193 185 184 185 302 355 342 299 323 324 347 4 18 15 15 17 16 20 42
234 237 236 232 233 237 230 230 229 228 227 225 221 221 220 220 221 223 222 218 213 205 202 216 207 205 203 214 241 255 288 310 300 276 350 7 14 17 14 21 18 28 45
228 242 243 247 243 243 243 238 235 231 230 229 226 224 225 226 226 229 232 230 225 220 211 214 218 219 215 224 250 269 272 275 281 266 312 359 14 18 14 24 22 27 46
244 234 248 249 250 249 247 249 245 238 237 237 232 229 229 231 233 235 237 237 233 226 220 211 221 220 232 244 263 276 282 273 256 249 308 348 19 18 18 21 27 37 39
243 249 231 233 231 235 246 251 255 247 241 241 238 239 238 237 236 239 243 243 242 238 229 221 214 226 236 251 266 285 288 267 246 254 297 333 20 20 19 21 27 31 41
247 231 211 222 220 227 238 243 255 254 247 243 243 245 250 249 247 244 245 248 249 244 232 227 221 224 237 249 259 254 240 259 238 250 279 308 17 21 19 20 21 21 20
238 232 190 207 236 237 241 244 257 264 259 254 254 248 253 255 252 251 250 250 249 244 240 230 226 232 236 247 251 260 244 231 228 243 263 295 359 7 16 13 13 13 18
233 219 230 237 237 249 230 244 247 257 258 265 265 265 267 260 254 253 252 251 249 244 239 234 229 234 248 251 252 250 239 224 227 235 255 286 317 325 350 351 357 8 14
232 230 233 244 233 238 230 233 236 249 263 267 277 276 283 273 277 268 255 250 245 245 237 237 237 252 249 247 234 225 221 221 225 233 241 253 272 278 307 322 335 360 5
226 227 237 233 239 237 235 232 244 264 270 285 297 304 298 283 285 279 254 251 248 242 235 238 242 248 248 234 220 218 219 223 228 231 236 239 245 263 283 293 311 345 349
235 238 241 239 234 242 240 260 270 279 277 268 277 287 297 292 286 283 273 252 255 246 233 236 239 238 235 229 212 219 216 228 231 243 240 236 236 249 266 271 284 317 331
235 237 243 236 239 248 250 248 261 269 277 277 283 288 292 300 296 291 287 271 256 247 239 234 238 234 234 222 225 214 202 218 224 238 239 237 234 243 253 256 262 289 309
194 196 198 212 229 234 240 250 254 260 275 284 281 281 283 282 284 289 292 281 266 248 244 241 239 237 235 231 227 233 235 246 214 221 239 236 235 239 243 245 248 261 286
183 189 194 201 210 218 233 241 249 255 264 272 277 275 277 276 278 277 283 285 271 265 250 240 240 238 237 237 233 233 234 242 243 239 248 239 233 232 231 236 240 245 268
167 178 191 200 208 221 238 254 261 265 271 276 282 283 285 273 273 266 274 287 273 263 262 248 241 236 241 242 237 238 243 244 246 242 243 241 233 227 227 229 233 236 251